Regional Weather Roundup
Issued by NWS

Home | Current Version | Previous Version | Text Only | Print | Product List | Glossary Off
Versions: 1 2 3 4 5 6 7 8 9 10 11 12 13 14 15 16 17 18 19 20 21 22 23 24 25 26 27 28 29 30 31 32 33 34 35 36 37 38 39 40 41 42 43 44 45 46 47 48 49 50

265
ASUS43 KMKX 230511
RWRWI

WISCONSIN REGIONAL WEATHER ROUNDUP
NATIONAL WEATHER SERVICE MILWAUKEE/SULLIVAN WI
1200 AM CDT FRI JUN 23 2017

NOTE: "FAIR" INDICATES FEW OR NO CLOUDS BELOW 12,000 FEET WITH NO
SIGNIFICANT WEATHER AND/OR OBSTRUCTIONS TO VISIBILITY.

WIZ001-002-006>008-014>016-023>028-230600-
NORTHWEST WISCONSIN

CITY           SKY/WX    TMP DP  RH WIND       PRES   REMARKS
SUPERIOR ARPT  NOT AVBL
ASHLAND        PTCLDY    58  53  84 S7        29.70R
HAYWARD        PTCLDY    56  53  90 CALM      29.72F
SIREN          CLEAR     60  52  72 CALM      29.73S
CUMBERLAND     CLOUDY    61  57  88 W7        29.74S
RICE LAKE      CLOUDY    63  60  90 W6        29.75S
CHETEK         CLOUDY    61  61 100 W3        29.74S
LADYSMITH      CLOUDY    60  59  97 CALM      29.74F
EAU CLAIRE     PTCLDY    63  63 100 W5        29.72S FOG
MENOMONIE      CLOUDY    64  63  97 W6        29.73S
NEW RICHMOND   CLOUDY    60  59  94 W5        29.75S
OSCEOLA        PTCLDY    60  60 100 CALM      29.77S
$$

WIZ003>005-009-010-017-018-230600-
NORTH CENTRAL WISCONSIN

CITY           SKY/WX    TMP DP  RH WIND       PRES   REMARKS
MANITOWISH WTR CLOUDY    54  54 100 CALM      29.71F
ARBOR VITAE    FOG       57  56  97 CALM      29.71F VSB 1/2
WOODRUFF       FOG       57  56  97 CALM      29.71F VSB 1/2
RHINELANDER    PTCLDY    58  58 100 W7        29.71F FOG
EAGLE RIVER    FOG       53  53 100 CALM      29.71S VSB 1/4
LAND O LAKES   CLOUDY    56  56 100 W3        29.72S
PHILLIPS       CLEAR     57  57 100 CALM      29.71F
TOMAHAWK       NOT AVBL
MEDFORD        PTCLDY    61  60  97 NW9       29.71F
MERRILL        CLOUDY    61  61 100 CALM      29.71F FOG
$$

WIZ029-030-035-036-043>047-230600-
CENTRAL WISCONSIN

CITY           SKY/WX    TMP DP  RH WIND       PRES   REMARKS
WAUSAU         CLOUDY    63  62  97 NW3       29.69F
MOSINEE        CLOUDY    63  63 100 NW5       29.72R
MARSHFIELD     CLOUDY    63  61  93 W5        29.71S
STEVENS POINT  CLOUDY    62  62 100 S3        29.71S FOG
WAUPACA        RAIN      67  67  99 CALM      29.71S
WAUTOMA        RAIN      65  65 100 CALM      29.71S
WISC RAPIDS    CLOUDY    66  65  96 CALM      29.71F FOG
CAMP DOUGLAS   LGT RAIN  66  66 100 CALM      29.71F FOG
$$

WIZ011>013-019>022-031-037>040-048>050-230600-
NORTHEAST WISCONSIN

CITY           SKY/WX    TMP DP  RH WIND       PRES   REMARKS
ANTIGO         CLOUDY    62  62 100 W3        29.71S
SHAWANO        CLOUDY    67  65  94 CALM      29.69S
OCONTO         CLOUDY    65  65  98 CALM      29.67F
STURGEON BAY     N/A     66  66 100 S5          N/A
GREEN BAY      MOCLDY    66  66 100 SW3       29.69F
MANITOWOC      LGT RAIN  67  65  93 SW6       29.71S
APPLETON       CLOUDY    64  64 100 CALM      29.69F
CLINTONVILLE   CLOUDY    64  63  94 SW3       29.70S FOG
OSHKOSH        TSTM      67  65  93 W3        29.72R FOG
$$

WIZ032>034-041-042-053>061-230600-
SOUTHWEST WISCONSIN

CITY           SKY/WX    TMP DP  RH WIND       PRES   REMARKS
LA CROSSE      CLOUDY    69  69 100 CALM      29.71S
SPARTA         LGT RAIN  64  64 100 CALM      29.73R
VIROQUA        CLOUDY    65  65 100 N7        29.73F
BOSCOBEL       TSTM      68  66  93 W15G25    29.73R FOG
PRAIRIE DU CHI RAIN      69  66  90 NW9       29.69R
PLATTEVILLE    CLOUDY    74  74  99 W5        29.66F
$$

WIZ056-057-062-063-064-067-068-230600-
SOUTH CENTRAL WISCONSIN

CITY           SKY/WX    TMP DP  RH WIND       PRES   REMARKS
REEDSBURG      LGT RAIN  64  64 100 CALM      29.71F
BARABOO/DELLS  TSTM      64  62  94 CALM      29.72F
LONE ROCK      LGT RAIN  67  64  90 N5        29.69S
MINERAL POINT  RAIN      70  70 100 NE7       29.67F
MADISON        CLOUDY    69  65  86 VRB7      29.70R
MIDDLETON      CLOUDY    69  66  90 N20       29.68F
WATERTOWN      CLOUDY    68  68 100 NW8       29.68R
MONROE         PTCLDY    73  70  88 S12       29.66F
JANESVILLE     CLEAR     75  72  88 S8        29.66F
$$

WIZ051-052-058>065-066-070>072-230600-
SOUTHEAST WISCONSIN

CITY           SKY/WX    TMP DP  RH WIND       PRES   REMARKS
MILWAUKEE      CLOUDY    69  66  90 CALM      29.68S
WAUKESHA       CLOUDY    64  64 100 CALM      29.69F
MILWAUKEE/TIMM LGT RAIN  66  63  88 CALM      29.69F
RACINE         CLOUDY    69  66  90 N6        29.69S
KENOSHA        CLOUDY    75  71  87 SW10      29.67F
FOND DU LAC    TSTM      67  64  90 CALM      29.70F
SHEBOYGAN      CLOUDY    67  67 100 NE6       29.71F
WEST BEND      CLOUDY    66  66 100 N3        29.69F
JUNEAU         LGT RAIN  67  64  92 N10       29.69F
$$

LSZ147-162-230600-
LAKE SUPERIOR

STATION/POSITION TIME  TEMP    WIND        PRES    WAVE
                       AIR SEA DIR/SP/G            HT/PER
                 (UTC) (F)     (DEG/KT/KT) (MB)    (FT/S)
W MID LAKE BUOY  0450   49 39  230/  8/ 10 1004.2F   1/ 3
DEVILS ISLAND    0500   61     220/ 10/ 11 1004.3F
PORT WING        0400   62     300/ 13     1005.4
SAXON HARBOR     0430   64     210/  5/  6 1005.1R
$$

LMZ867-665-643>646-230600-
LAKE MICHIGAN

STATION/POSITION TIME  TEMP    WIND        PRES    WAVE
                       AIR SEA DIR/SP/G            HT/PER
                 (UTC) (F)     (DEG/KT/KT) (MB)    (FT/S)
CHAMBERS ISLAND  0440   66     220/  3/  4 1004.7S
N MID LAKE BUOY  0450   60 54  210/  6/  8 1004.8F   2/ 5
NORTHPORT PIER   0440   65     250/  2/  4 1004.4S
KEWAUNEE LAKESHO 0442   65     240/  3/  4 1005.2F
SHEBOYGAN LAKESH 0500   63     350/ 11/ 12 1005.4F
PORT WASHINGTON  0430   63      10/  2/  4 1006.4S
ATWATER BUOY     0409   61 59  330/  4/  6 1005.7R
MILWAUKEE LAKESH 0450   66      40/  4/  6   N/A
S MID LAKE BUOY  0450   68 61  200/ 17/ 21 1004.2F   2/ 4
KENOSHA   LAKESH 0500   76     210/  9/ 14 1004.7
$$

TC  - TEMPERATURE IN CELSIUS
VSB - VISIBILITY IN STATUTE MILES
WCI - WIND CHILL INDEX
HX  - HEAT INDEX





USA.gov is the U.S. government's official web portal to all federal, state and local government web resources and services.